Location: Kaarina
(60.4167°N, 22.4167°E)
Time: 15:29:48
(UTC+03:00)

ARGOS Delta rocket - Pass Details

Date: 24 August 2019
Orbit: 635 x 838 km, 96.5° (Epoch: 15 September)

Event Time Altitude Azimuth Distance (km) Brightness Sun altitude
Exits shadow 23:11:33 19° 141° (SE) 1,871 5.3 -13.3°
Maximum altitude 23:15:23 59° 68° (ENE) 966 4.4 -13.6°
Drops below altitude 10° 23:20:47 10° 350° (N) 2,469 7.7 -13.9°
Sets 23:23:12 0° 347° (NNW) 3,403 8.8 -14.1°
